Regional Weather Roundup
Issued by NWS Cleveland, OH

Home | Current Version | Previous Version | Graphics & Text | Print | Product List | Glossary On
Versions: 1 2 3 4 5 6 7 8 9 10 11 12 13 14 15 16 17 18 19 20 21 22 23 24 25 26 27 28 29 30 31 32 33 34 35 36 37 38 39 40 41 42 43 44 45 46 47 48 49 50
000
ASUS41 KCLE 260402
RWRCLE
OHIO REGIONAL WEATHER ROUNDUP
NATIONAL WEATHER SERVICE CLEVELAND, OH
1100 PM EST SUN JAN 25 2015

NOTE: "FAIR" INDICATES FEW OR NO CLOUDS BELOW 12,000 FEET WITH NO
SIGNIFICANT WEATHER AND/OR OBSTRUCTIONS TO VISIBILITY.

OHZ001>008-015>018-024>027-034-035-043-044-260500-
   NORTHWEST OHIO

CITY           SKY/WX    TMP DP  RH WIND       PRES   REMARKS
DEFIANCE       LGT SNOW  19  13  77 NE12      29.92S WCI   7
FINDLAY        LGT SNOW  19  14  81 NE20G25   29.86F WCI   3
TOLEDO EXPRESS CLOUDY    19   8  62 NE15      29.94R WCI   5
TOLEDO EXEC    CLOUDY    18   7  62 NE14G20   29.95S WCI   4
LIMA           LGT SNOW  20  16  84 NE17      29.83S FOG     WCI   5
$$

OHZ009>014-019>023-028>033-038-089-260500-
   NORTHEAST OHIO

CITY           SKY/WX    TMP DP  RH WIND       PRES   REMARKS
CLE-HOPKINS    LGT SNOW  20  14  77 NE13      29.91S WCI   7
CLE-LAKEFRONT  FLURRIES  21  13  71 NE12      29.90S WCI   9
CUY CO. ARPT   CLOUDY    21  16  79 E13G23    29.89S WCI   9
LORAIN-ELYRIA  LGT SNOW  20  16  84 NE20G26   29.89R FOG     WCI   4
ASHTABULA      CLOUDY    18   7  62 NE9       29.90F WCI   7
AKRON-CANTON   LGT SNOW  21  16  81 NE16      29.81F VSB 1   WCI   7
WOOSTER        LGT SNOW  20  18  92 NE12      29.82F VSB 3/4 WCI   8
MANSFIELD      SNOW      19  17  92 N13       29.80F VSB 1/2 WCI   6
YOUNGSTOWN     LGT SNOW  19  16  88 NE10      29.84S FOG     WCI   7
$$

OHZ042-051>053-060>062-070>072-077>081-260500-
  SOUTHWEST OHIO

CITY           SKY/WX    TMP DP  RH WIND       PRES   REMARKS
CINC-COVINGTON LGT SNOW  35  32  88 N18       29.68S FOG     WCI  24
CINC-LUNKEN    LGT RAIN  37  36  96 N13       29.71S FOG
HAMILTON       LGT SNOW  30  28  92 N18G24    29.74R FOG     WCI  18
DAYTON         LGT SNOW  24  22  91 NE16      29.77S FOG     WCI  11
WRIGHT-PAT AFB LGT SNOW  25  22  91 N10       29.76S FOG     WCI  14
DAYTON GENERAL LGT SNOW  26  24  92 NE14      29.73R VSB 1   WCI  14
WILMINGTON     LGT SNOW  29  26  89 NE14      29.70F FOG     WCI  18
$$

OHZ036-037-039>041-045>050-054>059-063>069-073>076-082>088-260500-
  CENTRAL AND SOUTHEAST OHIO

CITY           SKY/WX    TMP DP  RH WIND       PRES   REMARKS
COLUMBUS       LGT SNOW  29  27  92 N8        29.75S FOG     WCI  21
OSU AIRPORT    LGT SNOW  26  24  92 NE14      29.76S FOG     WCI  14
BOLTON FIELD   NOT AVBL
RICKENBACK AFB NOT AVBL
NEWARK         LGT SNOW  30  27  88 NE8       29.76R FOG     WCI  22
MARION         SNOW      20  17  88 NE17      29.81F VSB 1/2 WCI   5
LANCASTER      LGT SNOW  33  32  96 NE6       29.74S FOG     WCI  28
ZANESVILLE     LGT SNOW  31  30  96 NE7       29.75S VSB 1   WCI  24
NEW PHILLY     LGT SNOW  27  23  85 NE8       29.80F VSB 1   WCI  19
$$


USA.gov is the U.S. government's official web portal to all federal, state and local government web resources and services.